KINEIS-4C

Last updated on Thu Sep 24 2026 00:03:12 GMT+0000 (Coordinated Universal Time)

1 63301U 25056B 26266.60188558 .00001031 00000+0 17083-3 0 9990 2 63301 97.9202 28.1233 0003829 29.1858 330.9563 14.72294522 81611
UTC large
Height (km)
Speed (km/s)
/
Latitude / Longitude
Inclination (degrees)
Orbital Period (minutes)
Azimuth
Elevation
Range (km)
Doppler Factor

Next 0 passes for location: London (51.5072 / 0.1276)

No passes found over London.
KINEIS-4C